Change the Weather History Date:

Monday, February 11, 2013

  Actual Average Record
Temperature  
Mean Temperature 34 °F -  
Max Temperature 34 °F 46 °F 57 °F (1998)
Min Temperature 33 °F 34 °F 10 °F (2012)
Degree Days  
Heating Degree Days 32    
Moisture  
Dew Point 32 °F    
Average Humidity 93    
Maximum Humidity 100    
Minimum Humidity 85    
Precipitation  
Precipitation 0.04 in - - ()
Sea Level Pressure  
Sea Level Pressure 29.53 in    
Wind  
Wind Speed 9 mph ()    
Max Wind Speed 18 mph    
Max Gust Speed 25 mph    
Visibility 3.6 miles    
Events Rain , Snow    
Averages and records for this station are not official NWS values.
T = Trace of Precipitation, MM = Missing Value Source: Averaged Metar Reports

Daily Weather History Graph

Daily Weather History Graph

Search for Another Location

Airport or City:

Trip Planner

Search our weather history database for the weather conditions in past years. The results will help you decide how hot, cold, wet, or windy it might be!

Date:

Astronomy

Feb. 11, 2013 Rise Set
Actual Time 7:25 AM GMT 5:12 PM GMT
Civil Twilight 6:50 AM GMT 5:47 PM GMT
Nautical Twilight 6:11 AM GMT 6:26 PM GMT
Astronomical Twilight 5:32 AM GMT 7:05 PM GMT
Moon 7:26 AM GMT (2/11) 7:11 PM GMT (2/11)
Length of Visible Light 10h 56m
Length of Day
9h 46m
New Moon, 2% of the Moon is Illuminated
Feb 11
New Moon
Feb 17
First Quarter
Feb 25
Full
Mar 4
Last Quarter
Mar 11
New

Hourly Weather History & Observations

Time (GMT) Temp. Windchill Dew Point Humidity Pressure Visibility Wind Dir Wind Speed Gust Speed Precip Events Conditions
12:50 AM 33.8 °F 22.8 °F 32.0 °F 93% 29.27 in 3.1 mi East 18.4 mph - N/A   Mostly Cloudy
1:50 AM 33.8 °F 24.8 °F 32.0 °F 93% 29.30 in 5.0 mi ESE 12.7 mph 25.3 mph N/A   Mostly Cloudy
2:50 AM 34 °F - 32 °F 88% 29.32 in 9 mi ESE 6.9 mph - -   Partly Cloudy
2:50 AM 33.8 °F 27.7 °F 32.0 °F 93% 29.30 in 6.2 mi ESE 6.9 mph - N/A   Overcast
3:50 AM 33.8 °F 25.8 °F 32.0 °F 93% 29.33 in 5.0 mi East 10.4 mph - N/A   Overcast
4:50 AM 33.8 °F 27.7 °F 32.0 °F 93% 29.36 in 2.5 mi ENE 6.9 mph - N/A   Overcast
5:50 AM 33 °F - 32 °F 93% 29.38 in 6 mi ENE 6.9 mph - -   Scattered Clouds
5:50 AM 33.8 °F 27.7 °F 32.0 °F 93% 29.36 in 5.6 mi ENE 6.9 mph - N/A   Overcast
6:50 AM 33.8 °F 29.6 °F 32.0 °F 93% 29.39 in 5.0 mi North 4.6 mph - N/A Rain Light Rain
7:50 AM 33.8 °F 27.0 °F 32.0 °F 93% 29.42 in 3.7 mi NE 8.1 mph - N/A Snow Light Snow
8:50 AM 34 °F - 32 °F 89% 29.46 in 2 mi NE 6.9 mph - - Snow Light Snow
8:50 AM 33.8 °F 27.7 °F 32.0 °F 93% 29.44 in 2.2 mi NE 6.9 mph - N/A Snow Light Snow
9:50 AM 33.8 °F 27.7 °F 32.0 °F 93% 29.47 in 3.7 mi NNE 6.9 mph - N/A Rain , Snow Light Rain
10:50 AM 33.8 °F 27.0 °F 32.0 °F 93% 29.50 in 1.1 mi NNE 8.1 mph - N/A Snow Light Snow
11:50 AM 34 °F - 33 °F 94% 29.54 in 3 mi NNE 10.4 mph - - Snow Light Snow
11:50 AM 33.8 °F 25.8 °F 33.8 °F 100% 29.50 in 3.1 mi NNE 10.4 mph - N/A Snow Light Snow
12:50 PM 33.8 °F 25.3 °F 32.0 °F 93% 29.53 in 3.7 mi NNE 11.5 mph - N/A Snow Light Snow
1:50 PM 33.8 °F 24.8 °F 32.0 °F 93% 29.56 in 3.7 mi NNE 12.7 mph - N/A Snow Light Snow
2:50 PM 34 °F - 32 °F 89% 29.60 in 4 mi North 9.2 mph - - Rain Light Rain
2:50 PM 33.8 °F 26.4 °F 32.0 °F 93% 29.59 in 3.7 mi North 9.2 mph - N/A Rain Light Rain
3:50 PM 33.8 °F 25.3 °F 32.0 °F 93% 29.59 in 3.7 mi NNE 11.5 mph - N/A   Haze
4:50 PM 33.8 °F 25.8 °F 32.0 °F 93% 29.62 in 4.3 mi NNE 10.4 mph - N/A   Haze
5:50 PM 34 °F - 31 °F 85% 29.67 in 4 mi NNE 10.4 mph - -   Haze
5:50 PM 33.8 °F 25.8 °F 32.0 °F 93% 29.65 in 3.7 mi NNE 10.4 mph - N/A   Haze
6:50 PM 33.8 °F 27.0 °F 32.0 °F 93% 29.68 in 2.5 mi NNE 8.1 mph - N/A Rain , Snow Light Rain
7:50 PM 33.8 °F 26.4 °F 32.0 °F 93% 29.68 in 1.9 mi NNE 9.2 mph - N/A Snow Light Snow
8:50 PM 33 °F - 32 °F 92% 29.74 in 2 mi North 5.8 mph - - Snow Light Snow
8:50 PM 33.8 °F 28.6 °F 32.0 °F 93% 29.71 in 2.2 mi North 5.8 mph - N/A Snow Light Snow
9:50 PM 33.8 °F 27.7 °F 32.0 °F 93% 29.74 in 3.1 mi North 6.9 mph - N/A Snow Light Snow
10:50 PM 33.8 °F 25.8 °F 32.0 °F 93% 29.77 in 2.8 mi NNE 10.4 mph - N/A   Light Drizzle
11:50 PM 33 °F - 31 °F 91% 29.81 in 2 mi NNE 9.2 mph - - Snow Light Snow
11:50 PM 33.8 °F 26.4 °F 32.0 °F 93% 29.77 in 2.5 mi NNE 9.2 mph - N/A Snow Light Snow